Home > Time Zones > World Clock > Weather > Iran > Gorgan > Past weeks

Flag Weather past 2 weeks in Gorgan, Iran

Now
48 °F

Fog.


Feels Like: 48 °F
Forecast: 43 / 52 °F
Wind: No wind

Location: Gorgan Airport

Current Time: Nov 28, 2014 at 10:44:41 AM

Latest Report: Nov 28, 2014 at 9:30 AM


Visibility: 2 mi

Pressure: 30.24 "Hg

Humidity: 94%

Dew point: 46 °F

Location of GorganLocation

Historic Weather in Gorgan — Graph

°F

Gorgan temperature yesterday

Maximum temperature yesterday: 54 °F (at 2:30 PM)
Minimum temperature yesterday: 45 °F (at 3:30 AM)
Average temperature yesterday: 48 °F

Past Weeks' High & Low Weather Summary

 TemperatureHumidityPressure
High75 °F (Nov 15, 1:30 PM)100% (Nov 19, 7:30 PM)30.39 "Hg (Nov 19, 7:30 PM)
Low37 °F (Nov 28, 4:30 AM)29% (Nov 15, 1:30 PM)29.71 "Hg (Nov 22, 8:30 PM)
Average54 °F84%30.19 "Hg
* Reported Nov 13 9:30 AM — Nov 28 9:30 AM, Gorgan, Weather by CustomWeather, © 2014

Note: Actual official high and low records may vary slightly from our data, if they occured in-between our weather recording intervals... More about our weather records

Advertising

Gorgan weather history for previous 24 hours

 ConditionsComfort  
Time TempWeatherWind HumidityBarometerVisibility
9:30 AM
Nov 28
48 °FFog.No wind94%30.24 "Hg2 mi
8:30 AM45 °FFog.No wind100%30.24 "Hg2 mi
7:30 AM39 °FFog.No wind100%30.24 "Hg2 mi
6:30 AM37 °FFog.No wind100%30.21 "Hg1 mi
5:30 AM37 °FFog.No wind100%30.21 "Hg1 mi
4:30 AM37 °FFog.No wind100%30.21 "Hg1 mi
3:30 AM39 °FClear.No wind100%30.18 "Hg10 mi
2:30 AM43 °FClear.No wind93%30.21 "Hg10 mi
1:30 AM45 °FPassing clouds.5 mph100%30.18 "HgN/A
12:30 AM45 °FPassing clouds.No wind100%30.18 "HgN/A
11:30 PM
Nov 27
48 °FPassing clouds.No wind94%30.21 "Hg4 mi
10:30 PM48 °FPartly cloudy.No wind94%30.21 "Hg4 mi
9:30 PM48 °FPartly cloudy.No wind94%30.21 "Hg4 mi
8:30 PM48 °FFog.5 mph94%30.18 "Hg3 mi
7:30 PM48 °FFog.5 mph94%30.18 "Hg3 mi
6:30 PM48 °FFog.No wind94%30.18 "Hg3 mi
5:30 PM48 °FFog.No wind94%30.18 "Hg3 mi
4:30 PM52 °FFog.7 mph82%30.15 "Hg3 mi
3:30 PM54 °FFog.7 mph77%30.15 "Hg3 mi
2:30 PM54 °FFog.No wind77%30.15 "Hg3 mi
1:30 PM52 °FFog.7 mph77%30.15 "Hg3 mi
12:30 PM50 °FFog.No wind88%30.15 "Hg3 mi
11:30 AM50 °FFog.9 mph88%30.18 "Hg3 mi
10:30 AM48 °FFog.9 mph94%30.18 "Hg2 mi
Weather by CustomWeather, © 2014

See weather overviewHow to use our weather pages